RH
49 41 55 57 41 32 33 29 36 68 93 100 100 100 100 100 98 98 99 88 90 88 78 77 75 72 62 60 61 58 56 56 58 58 52 46 46 43 41 41 38 43 45
54 51 50 50 75 66 44 35 36 40 37 48 85 96 96 89 80 74 70 64 63 52 40 32 34 38 41 45 43 38 32 29 28 28 29 24 30 30 30 26 43 38 34
75 76 72 63 52 77 80 59 60 77 76 66 59 89 85 76 48 37 34 37 32 22 25 24 22 19 18 17 16 17 15 14 14 13 12 13 13 13 12 13 21 22 17
92 94 80 60 38 74 100 97 100 91 74 89 91 97 86 72 42 28 29 23 22 25 28 24 22 21 26 19 16 14 15 14 13 12 11 11 12 10 11 15 12 18 43
53 58 46 43 56 61 90 100 91 84 72 98 100 90 87 68 40 40 29 28 25 23 25 26 25 26 22 19 18 17 17 16 14 13 13 11 11 13 11 11 12 15 25
50 47 44 78 95 100 100 100 100 100 100 100 94 92 79 63 53 51 44 34 26 29 33 38 32 26 24 22 22 19 19 16 15 13 12 12 12 13 13 14 29 37 44
54 53 56 100 99 100 100 100 100 100 96 90 95 96 100 81 49 33 34 32 33 35 34 29 28 28 26 28 32 27 21 19 16 15 13 14 16 20 18 19 18 22 53
57 70 91 100 100 100 100 100 100 100 100 100 100 100 99 73 51 43 41 36 36 30 24 24 24 25 37 38 35 35 32 28 21 18 18 21 21 19 20 23 20 37 53
95 87 78 93 100 100 100 100 100 100 100 99 88 76 67 56 53 47 40 23 19 18 17 17 20 26 31 50 56 40 52 40 28 26 20 26 62 49 29 28 38 57 60
83 91 98 100 100 100 100 98 99 100 98 92 82 66 51 38 25 23 21 22 22 24 21 18 17 20 36 61 64 68 78 47 33 23 42 40 58 69 100 48 76 80 75
94 100 97 96 99 74 67 76 75 60 58 48 38 35 24 21 22 20 24 28 26 38 30 26 21 16 24 47 87 94 88 63 40 26 29 57 60 65 86 86 84 92 93
97 84 90 79 61 54 49 46 49 47 28 29 26 29 31 26 24 23 23 28 35 31 25 30 40 22 21 34 64 85 87 77 46 33 25 32 57 89 77 88 100 90 100
41 36 31 33 33 31 33 35 41 37 37 28 25 30 34 35 28 29 27 26 25 29 32 33 52 41 28 37 46 77 64 63 60 40 35 29 52 74 68 91 100 100 96
35 36 35 32 32 33 32 35 34 34 32 27 39 44 40 38 34 32 29 26 25 32 34 29 55 65 50 47 70 79 69 67 72 55 52 44 32 72 88 76 88 92 100
32 36 33 35 37 40 40 42 48 46 44 67 77 61 35 26 25 27 29 32 36 37 33 33 32 77 73 60 60 67 99 80 79 76 67 50 50 37 80 90 88 84 98
45 37 31 35 36 45 76 90 86 90 94 98 80 58 49 36 32 35 57 51 43 39 34 39 37 45 69 73 76 68 76 100 92 84 90 75 62 59 35 99 100 78 76
37 38 41 46 55 70 81 58 80 80 72 79 76 49 44 39 55 53 54 60 45 44 40 37 50 38 39 59 95 89 70 67 100 100 100 100 100 50 49 36 100 100 95
48 43 41 43 44 42 50 53 58 51 59 48 48 33 32 40 47 46 48 42 38 44 46 41 44 58 58 60 85 96 100 89 80 100 98 100 100 77 50 46 40 79 100
53 45 46 43 39 41 40 42 45 56 62 52 37 34 44 52 48 45 36 38 42 51 55 45 53 48 72 92 84 100 100 100 78 90 100 100 100 100 82 54 43 44 54
68 61 59 55 53 45 43 58 71 80 58 63 57 53 52 54 49 33 40 47 48 52 56 48 63 68 84 92 96 90 91 94 100 72 65 82 96 98 99 93 58 50 48
62 60 59 59 62 54 57 75 79 78 74 69 57 47 54 44 33 45 52 62 66 60 63 61 49 48 59 53 70 93 97 74 85 100 100 48 48 46 59 72 92 73 40
68 66 49 51 52 61 62 61 59 55 51 44 37 41 41 45 52 58 62 73 73 78 87 76 94 86 64 59 60 44 56 73 76 70 94 95 89 64 72 48 51 71 86
56 59 52 46 44 45 47 48 46 47 39 45 55 51 51 51 54 58 59 61 71 84 95 91 82 82 88 96 88 88 58 46 40 53 86 98 93 83 97 100 83 60 52
48 43 41 43 35 36 39 41 38 30 35 37 38 54 52 50 60 53 51 71 90 95 88 80 82 90 100 95 96 100 91 78 58 59 55 63 64 65 56 84 100 100 82
84 75 78 69 57 53 50 50 55 52 44 48 47 44 48 55 62 56 58 60 66 68 72 66 61 54 47 44 50 64 93 100 100 100 100 100 100 100 98 63 61 100 100
100 100 100 97 86 71 70 62 55 66 67 59 64 60 63 61 52 58 64 63 67 63 40 27 22 21 19 19 20 20 23 36 87 73 100 100 100 88 99 100 69 60 80
Wind_Speed
43 41 39 38 38 37 38 40 40 43 43 42 45 47 47 46 49 50 54 55 52 51 55 57 60 63 64 64 66 64 62 62 64 64 62 60 59 59 60 63 62 62 59
43 41 40 40 41 43 42 38 37 39 42 45 43 46 45 47 48 50 48 50 52 52 52 52 55 56 58 60 63 65 67 66 67 69 70 69 68 68 70 67 65 62 61
45 44 46 47 45 43 45 44 42 40 38 42 43 45 45 49 51 51 51 47 46 42 43 47 49 53 57 58 57 59 59 60 62 64 65 66 68 66 64 63 61 60 59
46 47 49 52 47 43 42 45 42 41 40 43 48 49 52 52 51 48 45 46 45 43 44 48 50 54 54 54 55 56 57 59 61 62 64 63 61 63 61 58 59 56 48
46 47 44 43 43 45 43 39 44 43 44 46 48 51 54 55 54 52 51 49 50 51 51 52 51 51 53 54 57 57 58 59 59 59 59 59 61 58 59 55 53 51 48
41 39 39 39 39 38 42 43 42 43 48 51 54 49 46 50 52 53 53 53 52 53 54 55 55 55 58 58 57 58 58 56 54 52 51 52 51 53 53 52 46 43 42
36 36 36 34 38 36 37 41 43 41 42 44 46 45 46 48 50 52 53 54 55 55 57 60 63 62 59 58 59 59 55 54 53 50 48 46 45 46 45 45 45 43 41
32 32 34 38 39 42 44 41 41 40 38 39 41 45 49 50 52 54 55 58 60 63 65 66 66 64 60 60 59 58 54 52 49 45 45 43 42 43 42 39 40 39 39
35 36 35 37 38 37 36 36 38 38 41 41 44 46 50 54 56 58 60 61 61 62 61 60 60 63 64 60 58 54 49 47 45 41 44 39 33 34 36 37 38 38 38
33 33 36 33 31 34 37 39 36 38 41 43 45 48 49 52 52 52 57 57 58 58 59 58 60 60 60 57 53 49 45 41 40 39 41 37 37 35 31 35 37 39 38
26 29 30 27 29 30 30 34 37 38 40 42 44 46 47 47 49 51 52 56 61 60 59 59 59 56 56 60 53 47 44 41 41 37 39 37 40 37 33 32 37 39 39
27 28 25 25 29 33 34 37 41 42 41 42 41 42 45 48 52 56 56 56 60 65 67 65 61 55 54 54 56 53 48 44 38 37 35 36 40 40 35 35 36 38 40
30 30 30 36 40 42 43 45 48 50 49 49 49 54 55 58 58 59 62 65 64 69 69 69 69 62 52 54 54 53 52 46 41 36 35 34 34 41 39 36 36 40 41
39 42 43 44 46 49 50 51 56 55 55 58 60 62 66 68 70 70 70 70 70 74 73 71 70 69 61 54 54 50 49 47 45 39 34 33 35 37 39 38 40 39 42
50 46 46 47 47 50 53 54 60 61 60 61 63 67 68 71 73 74 74 76 79 81 83 74 70 68 66 59 56 57 52 51 47 47 44 38 33 36 38 39 39 41 39
50 50 52 54 56 60 59 62 65 66 65 65 71 74 78 78 79 79 81 82 87 88 83 75 71 72 71 65 63 56 57 55 54 51 51 48 45 37 38 41 41 43 45
60 59 59 61 62 62 61 63 62 68 69 76 81 84 85 83 83 84 85 89 90 92 88 77 75 73 72 68 65 65 58 59 60 57 55 55 51 47 42 39 46 44 46
66 65 66 68 68 68 67 70 73 73 78 82 84 86 87 87 89 91 93 96 98 97 92 82 79 77 73 72 68 68 68 65 61 64 61 59 57 52 49 45 42 45 48
68 71 73 75 76 75 77 78 79 82 83 85 87 87 91 94 96 99 102 101 101 99 89 83 80 79 75 73 73 72 72 71 65 67 66 63 63 58 56 53 49 45 45
73 74 77 78 78 82 85 87 86 89 92 91 93 96 98 101 102 103 106 107 108 99 92 77 83 81 77 76 74 75 77 74 74 70 66 61 63 62 61 60 59 55 50
77 79 81 81 81 85 87 89 91 95 95 97 99 102 104 107 107 110 112 110 106 94 79 70 72 73 77 74 72 76 81 83 78 79 75 75 69 65 57 58 66 62 60
83 84 84 84 85 85 86 90 94 95 97 98 102 106 109 112 117 117 116 113 100 84 77 74 75 77 74 74 75 76 80 81 87 85 81 82 81 79 75 74 65 61 64
87 88 88 88 89 91 94 97 99 101 102 104 109 111 114 118 119 119 114 102 87 82 84 83 83 83 85 84 83 83 82 85 87 86 87 87 87 87 85 84 83 79 75
93 95 95 97 99 100 102 102 104 107 109 111 114 117 122 121 116 109 98 89 88 90 91 90 93 94 97 94 91 90 91 89 91 94 95 93 92 88 88 88 87 88 82
101 103 104 104 105 105 107 110 115 115 114 118 121 123 117 113 102 92 87 85 86 88 90 89 89 88 88 92 97 101 107 105 105 103 102 102 103 102 95 94 94 93 92
109 110 110 110 112 115 118 118 120 121 121 122 122 118 108 94 89 89 88 88 87 87 85 84 80 78 77 79 83 84 90 95 115 114 119 119 122 114 112 104 98 97 96
Wind_Direction
268 268 271 267 265 269 269 269 268 267 263 261 259 262 263 265 264 267 266 269 273 273 274 273 274 275 275 277 276 275 276 276 277 277 278 277 275 273 274 277 274 275 272
266 268 274 273 270 267 269 269 270 274 272 268 267 267 269 272 273 273 275 278 279 279 279 279 278 276 277 277 276 276 276 276 276 276 275 275 274 275 275 274 271 271 272
266 269 270 271 271 270 267 268 270 273 272 270 268 269 271 277 276 275 277 279 275 276 280 280 278 278 278 278 276 275 276 275 275 275 273 274 271 270 269 269 271 270 272
264 266 269 272 269 270 269 269 271 273 274 271 269 269 272 276 278 280 277 274 272 276 284 283 282 283 283 281 280 279 281 279 279 277 275 273 273 269 266 267 266 268 268
267 268 269 272 267 266 268 268 270 269 267 265 266 268 270 275 279 280 279 279 275 275 280 284 286 284 285 285 283 283 283 285 285 281 279 274 269 265 265 262 262 262 260
265 264 266 269 265 264 264 262 266 267 267 268 270 272 275 276 278 280 281 280 283 283 284 285 287 288 286 287 286 288 288 291 290 290 281 275 267 262 261 259 254 256 259
263 260 266 266 264 262 261 268 274 275 274 275 274 276 278 279 280 288 288 289 289 287 285 287 288 289 286 285 286 289 289 292 293 291 284 274 268 262 259 255 251 247 250
260 257 256 253 255 263 272 276 278 281 282 279 282 284 283 284 287 289 287 287 288 288 288 287 287 288 284 283 284 286 287 289 294 293 282 274 269 262 257 251 250 245 245
254 252 246 248 255 263 265 267 271 273 274 277 278 279 284 287 288 289 289 293 292 292 291 287 286 285 284 283 283 281 286 290 293 289 279 269 263 262 255 249 245 240 244
262 266 262 261 260 261 267 267 269 268 269 272 276 278 282 283 287 292 292 294 293 296 298 296 289 287 286 284 282 281 281 285 288 287 277 265 260 252 256 248 238 239 240
261 257 259 252 255 266 270 266 268 272 272 275 276 280 287 294 292 301 303 307 302 298 294 296 294 293 286 282 278 277 277 280 283 280 273 268 264 259 250 249 244 239 241
256 255 257 263 271 272 275 278 275 273 276 277 283 291 295 294 296 298 299 301 307 307 302 299 298 294 289 281 275 272 274 274 276 274 271 268 258 257 250 252 246 239 242
264 264 268 274 272 276 276 280 275 270 274 279 285 292 294 296 294 297 299 301 305 307 305 300 297 294 290 285 278 272 270 268 267 271 267 266 264 255 255 251 249 244 243
260 264 267 271 272 273 274 274 275 278 279 284 292 296 296 294 294 294 298 300 304 306 307 298 291 290 289 287 277 273 269 264 262 261 263 265 263 257 254 252 247 248 244
265 266 266 267 270 273 275 277 279 281 285 291 290 290 292 292 291 293 295 299 304 305 305 295 286 281 282 281 278 273 270 264 259 258 261 261 261 260 254 252 250 247 247
266 267 271 271 272 276 279 280 278 279 283 283 287 287 290 291 292 294 296 298 300 301 302 286 281 276 275 276 274 272 268 264 262 257 260 262 266 259 254 246 249 250 245
270 271 274 274 275 279 279 280 280 284 281 285 285 286 287 288 292 294 294 296 297 297 298 287 275 274 272 267 268 267 267 263 259 259 258 259 260 254 251 248 243 244 249
273 273 273 276 279 281 279 279 278 278 280 283 284 286 288 288 289 292 294 295 295 297 294 286 271 268 268 265 261 262 261 263 259 255 255 255 256 256 252 244 241 244 242
273 274 275 277 277 277 278 282 279 281 279 280 282 285 287 289 289 290 292 293 294 295 289 282 266 264 264 263 259 257 258 259 258 255 252 251 253 254 253 248 241 243 245
275 276 276 277 278 279 280 281 280 280 280 280 284 285 285 287 287 290 292 294 294 293 289 275 263 261 262 262 261 257 255 255 256 254 253 247 247 248 247 250 252 248 242
278 279 278 279 280 280 281 281 280 280 281 281 284 286 287 290 292 293 295 294 293 289 281 270 260 263 260 259 261 259 256 254 254 251 252 247 243 247 245 247 247 248 245
278 279 279 280 281 281 282 281 282 285 285 286 289 292 291 292 293 294 295 294 289 283 275 271 263 259 257 256 258 257 256 254 252 252 250 249 251 250 252 251 248 243 246
280 281 281 281 281 280 281 282 283 284 285 288 290 291 291 292 293 292 292 289 283 280 277 273 269 263 256 253 250 252 253 255 254 251 250 249 249 249 250 250 253 253 252
282 284 283 281 281 280 279 281 282 284 284 285 289 291 292 291 291 291 290 286 283 280 279 278 273 268 263 258 251 248 249 247 251 252 247 248 248 250 251 248 249 254 253
284 283 284 285 283 283 282 283 286 286 287 287 288 292 291 291 291 288 287 284 282 283 284 282 277 273 270 265 258 252 246 245 244 246 247 245 245 251 252 251 249 249 252
283 282 282 281 281 283 283 284 286 285 285 286 289 291 292 289 288 288 287 286 288 287 285 282 281 279 275 270 267 261 255 250 241 243 244 252 249 248 249 248 248 250 250